Greenland, AR

2:29 PM CST on December 06, 2016 (GMT -0600)
Drake

Weather History for KFYV - November, 2011

Change the Weather History Date:

Sunday, November 6, 2011

  Actual Average Record
Temperature  
Mean Temperature 60 °F 51 °F  
Max Temperature 66 °F 63 °F 77 °F (1999)
Min Temperature 55 °F 40 °F 17 °F (1959)
Degree Days  
Heating Degree Days 6 14  
Month to date heating degree days 77  
Since 1 July heating degree days 377  
Growing Degree Days 10 (Base 50)    
Moisture  
Dew Point 53 °F    
Average Humidity 76    
Maximum Humidity 82    
Minimum Humidity 67    
Precipitation  
Precipitation 0.00 in 0.14 in 1.83 in (1996)
Month to date precipitation 0.86  
Year to date precipitation 41.90  
Sea Level Pressure  
Sea Level Pressure 30.01 in    
Wind  
Wind Speed 15 mph (South)    
Max Wind Speed 22 mph    
Max Gust Speed 30 mph    
Visibility 10 miles    
Events Rain    
T = Trace of Precipitation, MM = Missing Value Source: NWS Daily Summary

Daily Weather History Graph

Daily Weather History Graph

Search for Another Location

Airport or City:

Trip Planner

Search our weather history database for the weather conditions in past years. The results will help you decide how hot, cold, wet, or windy it might be!

Date:

Astronomy

Nov. 06, 2011 Rise Set
Actual Time 6:43 AM CST 5:16 PM CST
Civil Twilight 6:17 AM CST 5:42 PM CST
Nautical Twilight 5:46 AM CST 6:13 PM CST
Astronomical Twilight 5:16 AM CST 6:43 PM CST
Moon 2:55 PM CST 2:57 AM CST
Length of Visible Light 11h 25m
Length of Day
10h 32m
Waxing Gibbous, 86% of the Moon is Illuminated
Nov 6
Waxing Gibbous
Nov 10
Full
Nov 18
Last Quarter
Nov 25
New
Dec 2
First Quarter

Hourly Weather History & Observations

Time (CST) Temp. Dew Point Humidity Pressure Visibility Wind Dir Wind Speed Gust Speed Precip Events Conditions
12:53 AM 55.0 °F 45.0 °F 69% 29.94 in 10.0 mi South 17.3 mph 25.3 mph N/A   Clear
1:53 AM 55.0 °F 45.0 °F 69% 29.93 in 10.0 mi South 16.1 mph 21.9 mph N/A   Clear
1:53 AM 55.9 °F 45.0 °F 67% 29.94 in 10.0 mi South 21.9 mph 29.9 mph N/A   Clear
2:53 AM 55.9 °F 46.0 °F 69% 29.95 in 10.0 mi South 17.3 mph 24.2 mph N/A   Scattered Clouds
3:53 AM 55.9 °F 46.9 °F 72% 29.96 in 10.0 mi South 19.6 mph 24.2 mph N/A   Scattered Clouds
4:03 AM 55.4 °F 46.4 °F 72% 29.98 in 10.0 mi South 13.8 mph 23.0 mph N/A   Mostly Cloudy
4:36 AM 55.4 °F 48.2 °F 77% 29.99 in 10.0 mi South 8.1 mph - N/A   Mostly Cloudy
4:53 AM 55.9 °F 48.0 °F 75% 29.98 in 10.0 mi South 5.8 mph - N/A   Mostly Cloudy
5:53 AM 57.0 °F 50.0 °F 77% 29.97 in 10.0 mi South 11.5 mph 18.4 mph N/A   Mostly Cloudy
6:53 AM 57.9 °F 51.1 °F 78% 29.99 in 10.0 mi South 15.0 mph 20.7 mph N/A   Overcast
7:53 AM 59.0 °F 52.0 °F 78% 30.01 in 10.0 mi South 13.8 mph 19.6 mph N/A   Overcast
8:53 AM 60.8 °F 53.6 °F 77% 30.04 in 10.0 mi South 11.5 mph - N/A   Overcast
9:53 AM 61.0 °F 54.0 °F 78% 30.04 in 10.0 mi South 16.1 mph 25.3 mph N/A   Overcast
10:50 AM 60.8 °F 53.6 °F 77% 30.06 in 10.0 mi SSE 16.1 mph - N/A   Overcast
10:53 AM 61.0 °F 54.0 °F 78% 30.04 in 10.0 mi South 11.5 mph 20.7 mph N/A   Overcast
11:24 AM 64.4 °F 55.4 °F 73% 30.04 in 10.0 mi South 15.0 mph 21.9 mph N/A   Overcast
11:53 AM 63.0 °F 55.0 °F 75% 30.03 in 10.0 mi South 11.5 mph - N/A   Overcast
12:53 PM 64.0 °F 55.9 °F 75% 30.00 in 10.0 mi South 16.1 mph 21.9 mph N/A   Overcast
1:53 PM 64.9 °F 57.0 °F 75% 29.99 in 10.0 mi South 17.3 mph 25.3 mph N/A   Overcast
2:53 PM 64.9 °F 57.0 °F 75% 29.99 in 10.0 mi South 11.5 mph 18.4 mph N/A   Overcast
3:53 PM 64.9 °F 57.0 °F 75% 30.00 in 10.0 mi South 16.1 mph - N/A   Mostly Cloudy
4:53 PM 64.0 °F 57.0 °F 78% 30.00 in 10.0 mi South 12.7 mph 21.9 mph N/A   Mostly Cloudy
5:53 PM 64.0 °F 57.0 °F 78% 30.02 in 10.0 mi SSE 11.5 mph - N/A   Overcast
6:53 PM 64.4 °F 57.2 °F 77% 30.05 in 10.0 mi South 9.2 mph - N/A   Overcast
7:53 PM 63.0 °F 57.0 °F 81% 30.05 in 10.0 mi SSE 9.2 mph 18.4 mph 0.00 in Rain Light Rain
8:53 PM 62.6 °F 57.2 °F 82% 30.07 in 10.0 mi SSE 9.2 mph - N/A   Mostly Cloudy
9:53 PM 62.1 °F 55.9 °F 80% 30.06 in 10.0 mi SSE 10.4 mph 17.3 mph N/A   Scattered Clouds
10:53 PM 62.1 °F 55.9 °F 80% 30.05 in 10.0 mi SSE 11.5 mph - N/A   Mostly Cloudy